Wellsville, NY

6:30 PM EST on January 20, 2018 (GMT -0500)
Wellsville Municipal-Tarantine

Weather History for KELZ - July, 2013

Change the Weather History Date:

Friday, July 26, 2013

  Actual Average (KDSV) Record (KDSV)
Temperature  
Mean Temperature 60 °F -  
Max Temperature 75 °F 82 °F 93 °F (1951)
Min Temperature 46 °F 58 °F 45 °F (1975)
Degree Days  
Heating Degree Days 4    
Growing Degree Days 10 (Base 50)    
Moisture  
Dew Point 48 °F    
Average Humidity 80    
Maximum Humidity 100    
Minimum Humidity 38    
Precipitation  
Precipitation 0.00 in - - ()
Sea Level Pressure  
Sea Level Pressure 30.13 in    
Wind  
Wind Speed 1 mph (WNW)    
Max Wind Speed 7 mph    
Max Gust Speed -    
Visibility 6 miles    
Events Fog    
Averages and records for this station are not official NWS values.
T = Trace of Precipitation, MM = Missing Value Source: NWS Daily Summary

Daily Weather History Graph

Daily Weather History Graph

Search for Another Location

Airport or City:

Trip Planner

Search our weather history database for the weather conditions in past years. The results will help you decide how hot, cold, wet, or windy it might be!

Date:

Astronomy

Jul. 26, 2013 Rise Set
Actual Time 5:59 AM EDT 8:36 PM EDT
Civil Twilight 5:27 AM EDT 9:09 PM EDT
Nautical Twilight 4:46 AM EDT 9:49 PM EDT
Astronomical Twilight 4:00 AM EDT 10:34 PM EDT
Moon 10:43 PM EDT (7/26) 10:39 AM EDT (7/26)
Length of Visible Light 15h 41m
Length of Day
14h 37m
Waning Gibbous, 80% of the Moon is Illuminated
Jul 26
Waning Gibbous
Jul 29
Last Quarter
Aug 6
New
Aug 14
First Quarter
Aug 20
Full

Hourly Weather History & Observations

Time (EDT) Temp. Dew Point Humidity Pressure Visibility Wind Dir Wind Speed Gust Speed Precip Events Conditions
12:56 AM 52.0 °F 48.9 °F 89% 30.17 in 10.0 mi Calm Calm - N/A   Clear
1:56 AM 50.0 °F 48.0 °F 93% 30.15 in 10.0 mi Calm Calm - N/A   Clear
2:12 AM 50.0 °F 48.2 °F 94% 30.15 in 1.2 mi Calm Calm - N/A   Clear
2:43 AM 48.2 °F 46.4 °F 93% 30.14 in 1.5 mi Calm Calm - N/A   Clear
2:51 AM 48.2 °F 46.4 °F 93% 30.14 in 0.8 mi Calm Calm - N/A   Clear
2:56 AM 50.0 °F 48.0 °F 93% 30.14 in 2.5 mi Calm Calm - N/A   Clear
3:03 AM 50.0 °F 48.2 °F 94% 30.14 in 8.0 mi Calm Calm - N/A   Clear
3:24 AM 48.2 °F 48.2 °F 100% 30.14 in 1.5 mi Calm Calm - N/A   Clear
3:36 AM 50.0 °F 48.2 °F 94% 30.14 in 3.0 mi Calm Calm - N/A   Clear
3:56 AM 50.0 °F 48.0 °F 93% 30.14 in 10.0 mi Calm Calm - N/A   Clear
4:24 AM 48.2 °F 46.4 °F 93% 30.15 in 2.0 mi Calm Calm - N/A   Clear
4:33 AM 48.2 °F 46.4 °F 93% 30.14 in 7.0 mi Calm Calm - N/A   Clear
4:44 AM 48.2 °F 46.4 °F 93% 30.14 in 1.2 mi Calm Calm - N/A   Clear
4:46 AM 48.2 °F 46.4 °F 93% 30.14 in 0.8 mi Calm Calm - N/A   Mist
4:56 AM 48.0 °F 46.0 °F 93% 30.14 in 0.2 mi Calm Calm - N/A Fog Fog
5:08 AM 48.2 °F 46.4 °F 93% 30.14 in 0.8 mi Calm Calm - N/A   Mist
5:44 AM 46.4 °F 46.4 °F 100% 30.14 in 0.2 mi Calm Calm - N/A Fog Fog
5:56 AM 46.0 °F 45.0 °F 96% 30.14 in 0.2 mi Calm Calm - N/A Fog Fog
6:16 AM 46.4 °F 44.6 °F 93% 30.14 in 0.5 mi Calm Calm - N/A Fog Fog
6:30 AM 46.4 °F 46.4 °F 100% 30.15 in 0.2 mi Calm Calm - N/A Fog Fog
6:38 AM 48.2 °F 46.4 °F 93% 30.15 in 1.0 mi Calm Calm - N/A   Mist
6:44 AM 46.4 °F 44.6 °F 93% 30.15 in 0.2 mi Calm Calm - N/A Fog Fog
6:56 AM 46.0 °F 46.0 °F 100% 30.15 in 0.2 mi Calm Calm - N/A Fog Fog
7:21 AM 50.0 °F 48.2 °F 94% 30.16 in 0.8 mi Calm Calm - N/A   Mist
7:23 AM 50.0 °F 48.2 °F 94% 30.16 in 1.5 mi Calm Calm - N/A   Scattered Clouds
7:25 AM 50.0 °F 48.2 °F 94% 30.16 in 3.0 mi Calm Calm - N/A   Partly Cloudy
7:56 AM 54.0 °F 53.1 °F 97% 30.16 in 9.0 mi Calm Calm - N/A   Clear
8:14 AM 51.8 °F 51.8 °F 100% 30.17 in 2.0 mi Calm Calm - N/A   Partly Cloudy
8:27 AM 53.6 °F 51.8 °F 94% 30.17 in 9.0 mi Calm Calm - N/A   Clear
8:56 AM 54.0 °F 52.0 °F 93% 30.17 in 10.0 mi Calm Calm - N/A   Clear
9:56 AM 63.0 °F 52.0 °F 67% 30.17 in 10.0 mi SE 3.5 mph - N/A   Clear
10:56 AM 66.0 °F 48.9 °F 54% 30.15 in 10.0 mi North 4.6 mph - N/A   Partly Cloudy
11:56 AM 68.0 °F 48.9 °F 50% 30.14 in 10.0 mi West 6.9 mph - N/A   Clear
12:56 PM 70.0 °F 48.0 °F 46% 30.14 in 10.0 mi NNE 5.8 mph - N/A   Clear
1:56 PM 72.0 °F 50.0 °F 46% 30.12 in 10.0 mi WNW 5.8 mph - N/A   Clear
2:56 PM 73.9 °F 52.0 °F 46% 30.10 in 10.0 mi NW 4.6 mph - N/A   Clear
3:56 PM 73.0 °F 51.1 °F 46% 30.09 in 10.0 mi Calm Calm - N/A   Clear
4:56 PM 75.0 °F 52.0 °F 44% 30.08 in 10.0 mi Calm Calm - N/A   Scattered Clouds
5:56 PM 73.9 °F 48.0 °F 40% 30.07 in 10.0 mi SSW 3.5 mph - N/A   Clear
6:56 PM 73.0 °F 46.0 °F 38% 30.07 in 10.0 mi WSW 3.5 mph - N/A   Clear
7:56 PM 73.0 °F 46.0 °F 38% 30.06 in 10.0 mi Calm Calm - N/A   Clear
8:56 PM 69.1 °F 46.9 °F 45% 30.06 in 10.0 mi Calm Calm - N/A   Clear
9:56 PM 66.0 °F 48.9 °F 54% 30.06 in 10.0 mi ESE 3.5 mph - N/A   Clear
10:56 PM 63.0 °F 51.1 °F 65% 30.06 in 10.0 mi Calm Calm - N/A   Clear
11:56 PM 62.1 °F 51.1 °F 67% 30.06 in 10.0 mi Calm Calm - N/A   Clear